EW8331 Weather Reports


time (UTC)temp
C
wind
direction
speed
KPH
gust
KPH
rain 1hr
cm
rain 24hr
cm
rain mn
cm
humidity
%
barometer
mb
20260901230020 22 263 11.3 22.5 0.00 0.00 0.00 47 1014.4
20260901224524 22 235 12.9 20.9 0.00 0.00 0.00 47 1014.5
20260901223015 22 184 12.9 25.7 0.00 0.00 0.00 47 1014.5
20260901221545 22 283 6.4 20.9 0.00 0.00 0.00 46 1014.7
20260901220013 22 187 8.0 19.3 0.00 0.00 0.00 46 1014.8
20260901214511 22 262 11.3 20.9 0.00 0.00 0.00 45 1014.9
20260901213018 22 166 4.8 16.1 0.00 0.00 0.00 48 1014.8
20260901211513 21 212 9.7 20.9 0.00 0.00 0.00 48 1014.9
20260901210006 21 239 4.8 20.9 0.00 0.00 0.00 49 1014.8
20260901204512 21 260 8.0 27.4 0.00 0.00 0.00 49 1015.1
20260901203003 21 205 9.7 20.9 0.00 0.00 0.00 49 1015.1
20260901201502 21 203 6.4 22.5 0.00 0.00 0.00 50 1015.4
20260901200118 21 144 9.7 19.3 0.00 0.00 0.00 50 1015.4
20260901194609 21 186 6.4 17.7 0.00 0.00 0.00 46 1015.4
20260901193055 21 187 8.0 14.5 0.00 0.00 0.00 47 1015.5
20260901191630 21 152 6.4 14.5 0.00 0.00 0.00 50 1015.6
20260901190059 21 238 8.0 16.1 0.00 0.00 0.00 50 1015.8
20260901184546 20 205 4.8 14.5 0.00 0.00 0.00 51 1016.0
20260901183052 20 263 6.4 25.7 0.00 0.00 0.00 52 1016.0
20260901181551 20 169 3.2 16.1 0.00 0.00 0.00 55 1016.0
20260901180040 18 197 6.4 14.5 0.00 0.00 0.00 54 1016.1
20260901174540 18 155 3.2 16.1 0.00 0.00 0.00 56 1015.8
20260901173034 18 204 6.4 17.7 0.00 0.00 0.00 58 1015.8
20260901171536 18 200 9.7 19.3 0.00 0.00 0.00 58 1015.6
20260901170031 18 188 6.4 14.5 0.00 0.00 0.00 60 1015.5
20260901164529 17 198 4.8 16.1 0.00 0.00 0.00 61 1015.6
20260901163032 17 170 8.0 19.3 0.00 0.00 0.00 62 1015.6
20260901161529 17 214 9.7 22.5 0.00 0.00 0.00 63 1015.5
20260901160021 17 184 8.0 20.9 0.00 0.00 0.00 65 1015.3
20260901154518 16 175 6.4 16.1 0.00 0.00 0.00 66 1015.1
20260901153020 16 203 6.4 16.1 0.00 0.00 0.00 67 1015.1
20260901151528 16 228 3.2 19.3 0.00 0.00 0.00 68 1014.9
20260901150013 15 198 6.4 14.5 0.00 0.00 0.00 69 1014.8
20260901144507 15 214 8.0 0.0 0.00 0.00 0.00 69 1014.7
20260901143004 15 181 8.0 16.1 0.00 0.00 0.00 70 1014.5
20260901141617 15 242 6.4 14.5 0.00 0.00 0.00 71 1014.2
20260901140132 15 204 3.2 12.9 0.00 0.00 0.00 73 1014.1
20260901134553 15 224 4.8 9.7 0.00 0.00 0.00 73 1013.9
20260901133052 15 212 3.2 11.3 0.00 0.00 0.00 73 1013.7
20260901131553 14 207 1.6 11.3 0.00 0.00 0.00 73 1013.7
20260901130051 14 201 4.8 11.3 0.00 0.00 0.00 74 1013.6
20260901124553 15 222 3.2 11.3 0.00 0.00 0.00 74 1013.6
20260901123049 15 149 4.8 14.5 0.00 0.00 0.00 74 1013.5
20260901121548 15 214 9.7 17.7 0.00 0.00 0.00 74 1013.3
20260901120046 15 232 6.4 16.1 0.00 0.00 0.00 74 1013.3
20260901114545 15 195 4.8 14.5 0.00 0.00 0.00 74 1013.4
20260901113044 15 238 8.0 17.7 0.00 0.00 0.00 74 1013.5
20260901111543 15 166 8.0 19.3 0.00 0.00 0.00 74 1013.5
20260901110042 14 215 4.8 19.3 0.00 0.00 0.00 75 1013.3
20260901104543 14 216 4.8 14.5 0.00 0.00 0.00 76 1013.5
20260901103040 14 201 6.4 14.5 0.00 0.00 0.00 77 1013.3
20260901101555 14 217 8.0 19.3 0.00 0.00 0.00 75 1013.1
20260901100042 14 228 9.7 27.4 0.00 0.00 0.00 74 1013.2
20260901094537 14 204 8.0 17.7 0.00 0.00 0.00 76 1013.1
20260901093024 14 218 8.0 14.5 0.00 0.00 0.00 77 1013.3
20260901091531 14 197 4.8 14.5 0.00 0.00 0.00 78 1013.3
20260901090020 13 218 4.8 12.9 0.00 0.00 0.00 78 1013.3
20260901084533 13 217 6.4 12.9 0.00 0.00 0.00 79 1013.4
20260901083017 13 204 4.8 9.7 0.00 0.00 0.00 79 1013.5
20260901081515 13 196 3.2 8.0 0.00 0.00 0.00 79 1013.6
20260901080027 13 226 3.2 8.0 0.00 0.00 0.00 80 1013.5
20260901074510 13 197 4.8 11.3 0.00 0.00 0.00 80 1013.4
20260901073011 13 239 4.8 14.5 0.00 0.00 0.00 80 1013.5
20260901071506 13 194 4.8 14.5 0.00 0.00 0.00 80 1013.3
20260901070004 13 155 9.7 20.9 0.00 0.00 0.00 80 1013.3
20260901064503 13 214 8.0 16.1 0.00 0.00 0.00 80 1013.4
20260901063106 13 183 9.7 17.7 0.00 0.00 0.00 80 1013.4
20260901061609 13 200 8.0 14.5 0.00 0.00 0.00 81 1013.3
20260901060059 13 173 9.7 17.7 0.00 0.00 0.00 80 1013.4
20260901054557 13 194 8.0 17.7 0.00 0.00 0.00 80 1013.4
20260901053108 13 193 9.7 16.1 0.00 0.00 0.00 81 1013.3
20260901051556 13 200 11.3 19.3 0.00 0.00 0.00 81 1013.1
20260901050055 13 210 9.7 22.5 0.00 0.00 0.00 80 1013.1
20260901044611 13 197 9.7 17.7 0.00 0.00 0.00 80 1013.1
20260901043053 13 184 8.0 19.3 0.00 0.00 0.00 80 1013.0
20260901041552 13 194 9.7 17.7 0.00 0.00 0.00 80 1012.9
20260901040100 14 155 8.0 19.3 0.00 0.00 0.00 79 1012.8
20260901034552 14 207 12.9 22.5 0.00 0.00 0.00 79 1012.7
20260901033051 14 190 12.9 22.5 0.00 0.00 0.00 79 1012.5
20260901031550 15 156 12.9 22.5 0.00 0.00 0.00 79 1012.3
20260901030049 15 181 14.5 24.1 0.00 0.00 0.00 78 1012.1
20260901024558 15 154 14.5 22.5 0.00 0.00 0.00 77 1012.1
20260901023049 15 203 14.5 27.4 0.00 0.00 0.00 76 1012.0
20260901021604 16 186 12.9 25.7 0.00 0.00 0.00 75 1011.9
20260901020049 16 200 12.9 30.6 0.00 0.00 0.00 73 1011.8
20260901014543 16 212 14.5 29.0 0.00 0.00 0.00 72 1011.9
20260901013042 17 186 16.1 32.2 0.00 0.00 0.00 71 1011.8
20260901011542 17 204 12.9 27.4 0.00 0.00 0.00 68 1011.8
20260901010042 18 195 17.7 33.8 0.00 0.00 0.00 66 1011.7
20260901004539 18 236 11.3 30.6 0.00 0.00 0.00 65 1011.5
20260901003039 19 187 9.7 25.7 0.00 0.00 0.00 66 1011.6
20260901001541 19 243 11.3 27.4 0.00 0.00 0.00 64 1011.7
20260901000039 20 255 9.7 29.0 0.00 0.00 0.00 63 1011.8
20260831234537 20 245 11.3 27.4 0.00 0.00 0.00 61 1011.8
20260831233036 20 195 11.3 29.0 0.00 0.00 0.00 60 1011.8
20260831231554 20 217 9.7 27.4 0.00 0.00 0.00 60 1011.9